www.pogodaiklimat.ru

Погода и климат >> Архив погоды >> Индия >> Amritsar


ПОГОДА в Amritsar

  • Прогноз погоды в Amritsar
  • Монитор погоды в Amritsar
  • Климат города

АРХИВ ПОГОДЫ в Amritsar

Время (UTC), дата Ветер
(напр.,м/с)
 
Видим.   Явления Облачность Т
(С)
Тd
(С)
f
(%)
Тe
(С)
Тes
(С)
Комфортность P
(гПа)
Po
(гПа)
Тmin
(С)
Tmax
(С)
R
(мм)
R24
(мм)
S
(см)
00 16.10 штиль 0 2000 м дымка ясно +18.4 +16.7 90 +19 +19 1011.8 1012.0
03 16.10 нст 1 2000 м дымка ясно +20.0 +18.1 89 +24 +27 комфорт 1014.0 1014.0 +17.4 +30.4
06 16.10 нст 1 4000 м мгла ясно +28.2 +19.3 59 +34 +47 очень
душно
1012.7 1013.0
09 16.10 нст 2 4000 м мгла 3/0
[Ac trans]
+30.4 +17.9 47 +35 +42 очень
душно
1009.6 1010.0
12 16.10 штиль 0 2000 м мгла 5/0
[Ac trans]
+27.4 +18.7 59 +32 +33 очень
душно
1009.4 1009.0 +31.7
15 16.10 штиль 0 2000 м дымка 4/3 1200 м
[Sc diur, vesp Ac trans]
+23.0 +18.6 76 +29 +29 очень
душно
1010.9 1011.0
18 16.10 нст 1 2000 м дымка 3/0
[Ac trans]
+21.0 +17.8 82 +26 +26 душно 1011.3 1011.0
21 16.10 штиль 0 2000 м дымка 3/0
[Ac trans]
+19.2 +17.2 88 +21 +21 комфорт 1010.5 1011.0
00 17.10 штиль 0 2000 м дымка 3/0
[Ac trans]
+17.4 +16.4 94 +17 +17 1011.0 1011.0
03 17.10 СВ 2 4000 м дымка ясно +19.0 +16.0 83 +21 +23 комфорт 1012.9 1013.0 +16.4 +31.7
06 17.10 В 3 4000 м мгла ясно +26.8 +16.1 52 +30 +40 душно 1012.1 1012.0
09 17.10 В 2 2000 м мгла ясно +29.8 +16.4 44 +33 +42 душно 1009.2 1009.0
12 17.10 штиль 0 2000 м мгла ясно +27.6 +16.3 50 +31 +31 душно 1008.1 1008.0 +31.0
15 17.10 нст 2 2000 м мгла ясно +22.2 +16.3 69 +26 +26 душно 1010.1 1010.0
18 17.10 штиль 0 2000 м дымка ясно +21.8 +18.0 79 +26 +26 душно 1010.4 1010.0
21 17.10 штиль 0 2000 м дымка ясно +18.6 +16.3 86 +19 +19 1009.9 1010.0
00 18.10 штиль 0 2000 м дымка ясно +18.0 +16.7 92 +18 +18 1010.6 1011.0
03 18.10 штиль 0 2000 м дымка ясно +19.8 +16.5 81 +22 +25 комфорт 1012.4 1012.0 +16.0 +31.0
06 18.10 нст 1 4000 м мгла 4/0
[Ac trans]
+27.8 +16.6 51 +31 +41 душно 1011.9 1012.0
09 18.10 СЗ 4 4000 м мгла ясно +29.6 +15.3 42 +32 +38 душно 1009.5 1010.0
12 18.10 штиль 0 4000 м мгла ясно +27.0 +16.4 52 +30 +31 душно 1009.2 1009.0 +30.4
15 18.10 штиль 0 2000 м мгла ясно +21.4 +15.7 70 +25 +25 комфорт 1010.9 1011.0
18 18.10 штиль 0 2000 м дымка ясно +18.4 +15.4 83 +19 +19 1011.5 1012.0
21 18.10 штиль 0 2000 м дымка ясно +19.2 +15.9 81 +21 +21 комфорт 1011.4 1011.0
00 19.10 штиль 0 2000 м дымка ясно +16.6 +14.6 88 +16 +16 1012.0 1012.0
03 19.10 штиль 0 2000 м дымка ясно +19.4 +15.7 79 +21 +24 комфорт 1013.7 1014.0 +15.5 +30.4
06 19.10 штиль 0 4000 м мгла ясно +27.0 +17.9 57 +31 +46 душно 1013.3 1013.0
09 19.10 З 3 4000 м ясно +29.6 +17.3 48 +34 +41 очень
душно
1011.0 1011.0
12 19.10 В 3 2000 м мгла ясно +27.2 +18.4 59 +32 +32 очень
душно
1011.1 1011.0 +30.2
15 19.10 штиль 0 2000 м мгла ясно +21.2 +15.9 72 +25 +25 комфорт 1013.3 1013.0
18 19.10 нст 1 2000 м дымка ясно +18.4 +15.4 83 +20 +20 1014.2 1014.0
21 19.10 нст 1 2000 м дымка ясно +17.4 +15.0 86 +18 +18 1014.1 1014.0
00 20.10 С 2 2000 м дымка 1/0
[Ac trans]
+16.8 +15.1 90 +17 +17 1014.1 1014.0
03 20.10 нст 1 4000 м ясно +20.4 +14.5 69 +24 +26 комфорт 1015.8 1016.0 +14.8 +30.2
06 20.10 С 3 4000 м ясно +27.0 +13.1 42 +29 +38 жарко 1015.8 1016.0
09 20.10 СЗ 2 4000 м 3/0
[Ac trans]
+29.8 +12.5 35 +31 +38 жарко 1013.3 1013.0
12 20.10 штиль 0 4000 м мгла 3/0
[Ac trans]
+27.4 +14.0 44 +30 +30 жарко 1013.1 1013.0 +30.3
15 20.10 штиль 0 4000 м мгла ясно +19.6 +13.7 69 +21 +21 комфорт 1014.9 1015.0
18 20.10 штиль 0 2000 м дымка ясно +18.6 +15.2 81 1015.3 1015.3
21 20.10 штиль 0 2000 м дымка ясно +15.6 +13.8 89 +15 +15 1015.1 1015.0
00 21.10 штиль 0 2000 м дымка ясно +15.4 +14.7 96 +15 +15 1015.1 1015.0
03 21.10 штиль 0 2000 м дымка ясно +19.0 +16.0 83 +20 +23 1016.7 1017.0 +13.4 +30.3
06 21.10 нст 1 4000 м мгла ясно +26.8 +16.1 52 +30 +42 душно 1016.5 1017.0
09 21.10 З 4 4000 м мгла ясно +29.2 +15.2 43 +32 +38 душно 1014.4 1014.0
12 21.10 штиль 0 4000 м мгла ясно +26.0 +15.1 51 +29 +29 душно 1013.9 1014.0 +30.0
15 21.10 штиль 0 2000 м дымка ясно +20.0 +15.3 74 +22 +22 комфорт 1015.5 1016.0
18 21.10 штиль 0 2000 м дымка ясно +18.0 +16.3 90 +18 +18 1015.5 1016.0
21 21.10 штиль 0 2000 м дымка ясно +17.0 +15.3 90 +17 +17 1014.7 1015.0
00 22.10 штиль 0 2000 м дымка ясно +16.2 +15.2 94 +16 +16 1014.1 1014.0
03 22.10 штиль 0 2000 м дымка ясно +20.0 +16.7 81 +22 +25 комфорт 1015.1 1015.0 +14.6 +30.0
06 22.10 штиль 0 2000 м мгла ясно +26.0 +15.4 52 +29 +43 душно 1014.5 1015.0
09 22.10 З 3 4000 м дым ясно +29.6 +14.0 39 +32 +39 душно 1011.4 1011.0
12 22.10 штиль 0 2000 м мгла ясно +26.8 +15.3 49 +30 +30 душно 1010.9 1011.0 +30.0
15 22.10 штиль 0 2000 м мгла ясно +21.4 +15.7 70 +25 +25 комфорт 1012.9 1013.0
18 22.10 штиль 0 2000 м дымка ясно +18.8 +15.1 79 +20 +20 1013.4 1013.0

 

Местоположение метеостанции Amritsar (Punjab, Индия): широта 31.63 долгота 74.87 высота над уровнем моря 234 м.

В архиве по умолчанию представлена погода в Amritsar за последнюю неделю. Архивные данные за месяц целиком и за предыдущие месяцы, начиная с января 2011 года, Вы можете получить, выбрав интересующий диапазон дат из раскрывающегося списка и нажав кнопку "Ввод!".


*Определитесь, кто Вы:
робот инопланетянин человек

Внимание! Время в таблицах - всемирное. Для получения местного времени необходимо прибавить поправку, которая в Amritsar равна 5.5 ч.

Смотрите также архив погоды в соседних городах и на ближайших метеорологических станциях:

Погода в Lahore City (Пакистан) (52 км)
Погода в Sialkot (Пакистан) (102 км)
Погода в Jammu (Jammu and Kashmir, Индия) (116 км)
Погода в Ludhiana (Punjab, Индия) (132 км)
Погода в Una (Himachal Pradesh, Индия) (134 км)
Погода в Kangra (Himachal Pradesh, Индия) (142 км)
Погода в Katra (Jammu and Kashmir, Индия) (151 км)
Погода в Dharamsala (Himachal Pradesh, Индия) (159 км)
Погода в Batote (Jammu and Kashmir, Индия) (169 км)
Погода в Faisal Abad (Пакистан) (169 км)

Пояснения к столбцам:

Ветер - указаны скорость ветра в м/с - средняя за 10 мин, порывы в срок и между сроками (в фигурных скобках) и направление, откуда дует ветер: С - северный, СВ - северо-восточный, В - восточный, ЮВ - юго-восточный, Ю - южный, ЮЗ - юго-западный, З - западный, СЗ - северо-западный.
Видимость - горизонтальная дальность видимости в метрах или километрах. При видимости от 1 до 10 км при отсутствии осадков обычно наблюдается дымка, при ухудшении видимости до 1 км и менее - туман. В сухую погоду видимость может ухудшаться дымом, пылью или мглою.
Явления - указаны атмосферные явления, наблюдавшиеся в срок или в последний час перед сроком; фигурными скобками обозначены явления, наблюдавшиеся между сроками (за 1-3 часа до срока); квадратными скобками обозначены град или гололедные отложения с указанием их диаметра в мм.
Облачность - указаны через наклонную черту общая и нижняя облачность в баллах и высота нижней границы облаков в метрах; квадратными скобками обозначены формы облаков: Ci - перистые, Cs - перисто-слоистые, Cc - перисто-кучевые, Ac - высококучевые, As - высокослоистые, Sc - слоисто-кучевые, Ns - слоисто-дождевые, Cu - кучевые, Cb - кучево-дождевые. Подробнее классификацию облаков см. в Атласе облаков (PDF).
T - Температура воздуха - температура, измеренная на высоте 2 м над землей.
Td - Температура точки росы - температура, при понижении до которой содержащийся в воздухе водяной пар достигнет насыщения.
f - Относительная влажность воздуха - влажноcть воздуха, измеренная на высоте 2 м над землей.
Te - Эффективная температура - температура, которую ощущает одетый по сезону человек в тени. Характеристика душности погоды. При расчете учитывается влияние влажности воздуха и скорости ветра на теплоощущения человека.
Tes - Эффективная температура на солнце - температура, которую ощущает человек, с поправкой на солнечный нагрев. Характеристика знойности погоды. Зависит от высоты солнца над горизонтом, облачности и скорости ветра. Ночью, в пасмурную погоду, а также при ветре 12 м/с и более поправка равна нулю.
P - Атмосферное давление - приведенное к уровню моря атмосферное давление.
Po - Атмосферное давление - измеренное на уровне метеостанции атмосферное давление.
Tmin - Минимальная температура - минимум температуры воздуха на высоте 2 м над землей.
Tmax - Максимальная температура - максимум температуры воздуха на высоте 2 м над землей.
R - Количество осадков - Количество выпавших осадков за период времени, мм. При наведении курсора мыши на число - период времени, за который выпало указанное количество осадков.
R24 - Количество осадков - Количество выпавших осадков за 24 часа, мм.
S - Снежный покров - Высота снежного покрова, см. При наведении курсора мыши на число - состояние снежного покрова и степень покрытия местности в баллах.